Location: Orinda
(37.8771°N, 122.1797°W)
Time: 16:38:20
(UTC+00:00)

SL-16 R/B - Pass Details

Date: 21 October 2019
Orbit: 840 x 850 km, 71.0° (Epoch: 19 November)

Event Time Altitude Azimuth Distance (km) Brightness Sun altitude
Exits shadow 13:46:59 - 238° (WSW) 3,279 4.8 -7.8°
Reaches altitude 10° 13:49:35 10° 251° (WSW) 2,457 4.1 -7.3°
Maximum altitude 13:54:03 24° 304° (WNW) 1,699 3.3 -6.4°
Drops below altitude 10° 13:58:32 10° 356° (N) 2,473 4.5 -5.6°
Sets 14:01:30 0° 11° (N) 3,413 5.4 -5.0°
